User: anonymous   Login
Location: Guayaquil
(2.1667°S, 79.9000°W)
Time: 07:06:46
(UTC-05:00)
Language:

ELECTRON R/B - Orbit

View from above orbital plane
View from above orbital plane
View from above satellite
View from above satellite

Ground track
Ground track

The orbit data is extracted from the following two-line orbital elements,

1 43166U 18010D   18175.90763523 +.00042037 -66365-6 +26581-3 0  9991
2 43166 082.9091 345.2791 0133437 005.7434 354.5315 15.64809931024116
Epoch (UTC): 24 June 2018 21:46:59
Eccentricity: 0.0133437
inclination: 82.9091°
perigee height: 283 km
apogee height: 464 km
right ascension of ascending node: 345.2791°
argument of perigee: 5.7434°
revolutions per day: 15.64809931
mean anomaly at epoch: 354.5315°
orbit number at epoch: 2411

The dashed part of the orbit path shows where the satellite is in the earth's shadow,  

DLR